QPF
0.00 0.00 0.00 0.00 0.00 0.00 0.00 0.00 0.01 0.02 0.04 0.05 0.06 0.12 0.15 0.17 0.23 0.25 0.17 0.12 0.14 0.20 0.19 0.11 0.06 0.03 0.02 0.02 0.04 0.05 0.05 0.05 0.03 0.01 0.01 0.00 0.00 0.00 0.00 0.00 0.00 0.00 0.00
0.00 0.00 0.00 0.00 0.00 0.00 0.00 0.00 0.01 0.03 0.05 0.05 0.05 0.06 0.08 0.08 0.11 0.15 0.18 0.15 0.16 0.24 0.26 0.23 0.16 0.09 0.05 0.06 0.07 0.09 0.11 0.12 0.10 0.06 0.02 0.00 0.00 0.00 0.00 0.00 0.00 0.00 0.00
0.00 0.00 0.00 0.00 0.00 0.00 0.00 0.00 0.01 0.04 0.06 0.04 0.03 0.02 0.02 0.03 0.05 0.06 0.10 0.10 0.10 0.14 0.19 0.26 0.26 0.19 0.12 0.10 0.12 0.15 0.18 0.21 0.21 0.15 0.07 0.01 0.00 0.00 0.00 0.00 0.00 0.00 0.00
0.01 0.01 0.01 0.00 0.00 0.00 0.00 0.00 0.02 0.04 0.03 0.02 0.01 0.01 0.01 0.02 0.03 0.02 0.04 0.03 0.03 0.06 0.10 0.16 0.24 0.28 0.23 0.22 0.21 0.21 0.22 0.23 0.24 0.24 0.14 0.05 0.02 0.00 0.00 0.00 0.00 0.00 0.00
0.02 0.03 0.03 0.03 0.02 0.02 0.01 0.01 0.02 0.03 0.01 0.00 0.00 0.00 0.01 0.03 0.03 0.01 0.01 0.01 0.01 0.03 0.04 0.08 0.13 0.18 0.22 0.26 0.35 0.32 0.26 0.20 0.16 0.20 0.22 0.20 0.16 0.08 0.02 0.00 0.00 0.00 0.00
0.07 0.11 0.11 0.11 0.10 0.08 0.07 0.04 0.03 0.01 0.00 0.00 0.00 0.00 0.01 0.04 0.04 0.02 0.01 0.01 0.01 0.02 0.03 0.04 0.05 0.07 0.12 0.18 0.27 0.31 0.33 0.28 0.19 0.15 0.17 0.19 0.23 0.26 0.18 0.07 0.02 0.00 0.00
0.12 0.19 0.22 0.22 0.18 0.16 0.12 0.05 0.01 0.00 0.00 0.00 0.00 0.00 0.01 0.02 0.03 0.02 0.01 0.01 0.00 0.01 0.02 0.04 0.06 0.07 0.12 0.21 0.26 0.28 0.27 0.26 0.21 0.15 0.13 0.15 0.17 0.20 0.24 0.19 0.08 0.01 0.00
0.16 0.18 0.18 0.19 0.17 0.12 0.06 0.02 0.00 0.00 0.00 0.00 0.00 0.00 0.01 0.01 0.02 0.01 0.00 0.00 0.00 0.00 0.00 0.01 0.01 0.02 0.06 0.15 0.22 0.21 0.19 0.21 0.20 0.18 0.16 0.18 0.25 0.24 0.22 0.23 0.16 0.06 0.01
0.30 0.29 0.29 0.30 0.19 0.08 0.03 0.01 0.00 0.00 0.00 0.00 0.00 0.00 0.00 0.00 0.00 0.00 0.00 0.00 0.00 0.00 0.00 0.00 0.00 0.01 0.02 0.03 0.07 0.11 0.17 0.16 0.16 0.17 0.18 0.20 0.32 0.41 0.31 0.27 0.23 0.14 0.05
0.41 0.47 0.53 0.46 0.20 0.06 0.02 0.01 0.00 0.00 0.00 0.00 0.00 0.00 0.00 0.00 0.00 0.00 0.00 0.00 0.00 0.00 0.00 0.00 0.00 0.00 0.00 0.02 0.02 0.05 0.12 0.14 0.13 0.15 0.18 0.18 0.23 0.36 0.40 0.34 0.29 0.22 0.12
0.41 0.48 0.51 0.38 0.16 0.04 0.02 0.01 0.00 0.00 0.00 0.00 0.00 0.01 0.01 0.01 0.01 0.01 0.00 0.00 0.00 0.00 0.00 0.00 0.00 0.00 0.00 0.00 0.00 0.00 0.02 0.03 0.05 0.07 0.10 0.14 0.20 0.24 0.30 0.34 0.33 0.31 0.23
0.18 0.20 0.19 0.13 0.09 0.05 0.02 0.01 0.01 0.01 0.02 0.02 0.02 0.02 0.02 0.03 0.02 0.01 0.00 0.00 0.00 0.00 0.01 0.01 0.01 0.00 0.00 0.00 0.00 0.00 0.00 0.00 0.01 0.02 0.04 0.07 0.13 0.17 0.21 0.27 0.30 0.31 0.30
0.04 0.04 0.04 0.04 0.04 0.04 0.04 0.04 0.05 0.06 0.08 0.09 0.06 0.04 0.04 0.03 0.02 0.02 0.01 0.00 0.00 0.00 0.00 0.01 0.01 0.01 0.00 0.00 0.00 0.00 0.00 0.00 0.00 0.00 0.01 0.03 0.06 0.10 0.16 0.22 0.26 0.26 0.27
0.02 0.02 0.02 0.02 0.03 0.04 0.05 0.07 0.08 0.11 0.16 0.21 0.20 0.12 0.08 0.06 0.04 0.03 0.04 0.03 0.01 0.00 0.00 0.01 0.02 0.02 0.01 0.00 0.00 0.00 0.00 0.00 0.00 0.00 0.00 0.01 0.03 0.08 0.14 0.19 0.22 0.23 0.23
0.03 0.02 0.02 0.03 0.02 0.02 0.04 0.06 0.09 0.15 0.25 0.36 0.38 0.27 0.17 0.11 0.09 0.09 0.09 0.06 0.04 0.02 0.01 0.01 0.01 0.03 0.04 0.03 0.02 0.01 0.00 0.00 0.00 0.00 0.00 0.01 0.03 0.07 0.12 0.15 0.18 0.21 0.24
0.08 0.07 0.07 0.06 0.05 0.05 0.05 0.06 0.09 0.15 0.24 0.35 0.40 0.37 0.27 0.17 0.12 0.15 0.16 0.12 0.10 0.07 0.05 0.03 0.02 0.02 0.03 0.04 0.06 0.04 0.01 0.00 0.00 0.00 0.00 0.00 0.01 0.04 0.08 0.14 0.17 0.20 0.21
0.14 0.13 0.13 0.13 0.13 0.12 0.10 0.10 0.12 0.16 0.23 0.31 0.37 0.35 0.27 0.20 0.15 0.19 0.20 0.17 0.14 0.13 0.12 0.10 0.07 0.06 0.05 0.04 0.05 0.06 0.03 0.02 0.01 0.00 0.00 0.00 0.01 0.01 0.03 0.07 0.13 0.15 0.17
0.14 0.14 0.14 0.12 0.11 0.11 0.09 0.10 0.11 0.13 0.14 0.16 0.16 0.17 0.17 0.16 0.15 0.16 0.16 0.15 0.14 0.15 0.16 0.17 0.19 0.14 0.08 0.06 0.06 0.07 0.04 0.02 0.01 0.01 0.01 0.00 0.00 0.01 0.02 0.03 0.04 0.06 0.09
0.07 0.06 0.06 0.05 0.03 0.03 0.03 0.03 0.03 0.03 0.03 0.04 0.04 0.05 0.05 0.05 0.05 0.05 0.06 0.09 0.11 0.12 0.14 0.18 0.23 0.19 0.12 0.10 0.09 0.09 0.05 0.02 0.02 0.02 0.02 0.01 0.01 0.02 0.04 0.04 0.03 0.02 0.04
0.01 0.01 0.01 0.01 0.00 0.00 0.00 0.00 0.00 0.00 0.00 0.00 0.00 0.00 0.00 0.00 0.00 0.00 0.01 0.02 0.04 0.05 0.07 0.09 0.13 0.15 0.14 0.13 0.09 0.10 0.12 0.07 0.06 0.06 0.03 0.03 0.03 0.04 0.07 0.07 0.05 0.02 0.03
0.00 0.00 0.00 0.00 0.00 0.00 0.00 0.00 0.00 0.00 0.00 0.00 0.00 0.00 0.00 0.00 0.00 0.00 0.00 0.00 0.00 0.01 0.01 0.02 0.05 0.08 0.10 0.10 0.12 0.17 0.16 0.11 0.08 0.06 0.04 0.03 0.06 0.09 0.07 0.06 0.04 0.03 0.04
0.00 0.00 0.00 0.00 0.00 0.00 0.00 0.00 0.00 0.00 0.00 0.00 0.00 0.00 0.00 0.00 0.00 0.00 0.00 0.00 0.00 0.00 0.00 0.00 0.01 0.03 0.04 0.05 0.07 0.11 0.09 0.05 0.03 0.03 0.04 0.06 0.14 0.15 0.08 0.04 0.03 0.03 0.03
0.00 0.00 0.00 0.00 0.00 0.00 0.00 0.00 0.00 0.00 0.00 0.00 0.00 0.00 0.00 0.00 0.00 0.00 0.00 0.00 0.00 0.00 0.00 0.00 0.00 0.00 0.01 0.01 0.02 0.02 0.03 0.02 0.01 0.03 0.08 0.13 0.15 0.11 0.07 0.05 0.04 0.02 0.02
0.00 0.00 0.00 0.00 0.00 0.00 0.00 0.00 0.00 0.00 0.00 0.00 0.00 0.00 0.00 0.00 0.00 0.00 0.00 0.00 0.00 0.00 0.00 0.00 0.00 0.00 0.00 0.00 0.00 0.00 0.01 0.01 0.01 0.04 0.09 0.12 0.09 0.06 0.07 0.06 0.03 0.02 0.02
0.00 0.00 0.00 0.00 0.00 0.00 0.00 0.00 0.00 0.00 0.00 0.00 0.00 0.00 0.00 0.00 0.00 0.00 0.00 0.00 0.00 0.00 0.00 0.00 0.00 0.00 0.00 0.00 0.00 0.01 0.01 0.02 0.04 0.06 0.08 0.08 0.07 0.08 0.07 0.04 0.03 0.02 0.03
0.00 0.00 0.00 0.00 0.00 0.00 0.00 0.00 0.00 0.00 0.00 0.00 0.00 0.00 0.00 0.00 0.00 0.00 0.00 0.00 0.00 0.00 0.00 0.00 0.00 0.00 0.01 0.01 0.02 0.03 0.04 0.05 0.09 0.14 0.17 0.18 0.18 0.17 0.13 0.07 0.04 0.02 0.01
MSLP
1005.83 1005.67 1005.65 1005.77 1005.99 1006.31 1006.70 1007.16 1007.67 1008.21 1008.78 1009.35 1009.92 1010.45 1010.94 1011.36 1011.69 1011.95 1012.13 1012.25 1012.35 1012.45 1012.60 1012.80 1013.08 1013.43 1013.84 1014.29 1014.74 1015.18 1015.59 1015.96 1016.28 1016.56 1016.79 1016.98 1017.11 1017.19 1017.21 1017.16 1017.07 1016.94 1016.81
1005.57 1005.41 1005.41 1005.55 1005.79 1006.11 1006.50 1006.95 1007.45 1008.00 1008.58 1009.18 1009.78 1010.34 1010.85 1011.27 1011.60 1011.83 1011.98 1012.08 1012.17 1012.27 1012.41 1012.63 1012.93 1013.29 1013.71 1014.15 1014.59 1015.02 1015.42 1015.79 1016.13 1016.44 1016.73 1016.99 1017.21 1017.38 1017.47 1017.48 1017.42 1017.32 1017.19
1005.45 1005.29 1005.30 1005.45 1005.70 1006.04 1006.43 1006.89 1007.39 1007.94 1008.52 1009.13 1009.73 1010.29 1010.79 1011.20 1011.51 1011.71 1011.85 1011.93 1012.00 1012.10 1012.25 1012.47 1012.76 1013.11 1013.51 1013.92 1014.32 1014.72 1015.09 1015.45 1015.81 1016.17 1016.53 1016.89 1017.21 1017.48 1017.66 1017.75 1017.75 1017.68 1017.55
1005.52 1005.35 1005.36 1005.52 1005.79 1006.13 1006.53 1006.98 1007.48 1008.02 1008.59 1009.18 1009.76 1010.30 1010.77 1011.14 1011.42 1011.60 1011.71 1011.78 1011.85 1011.94 1012.09 1012.30 1012.58 1012.90 1013.25 1013.61 1013.96 1014.30 1014.64 1014.99 1015.36 1015.77 1016.20 1016.64 1017.07 1017.45 1017.74 1017.92 1017.98 1017.94 1017.83
1005.84 1005.64 1005.63 1005.78 1006.04 1006.37 1006.77 1007.20 1007.68 1008.20 1008.74 1009.29 1009.83 1010.32 1010.75 1011.08 1011.33 1011.48 1011.58 1011.65 1011.71 1011.81 1011.95 1012.15 1012.40 1012.67 1012.97 1013.26 1013.54 1013.82 1014.11 1014.44 1014.82 1015.26 1015.75 1016.27 1016.79 1017.27 1017.66 1017.92 1018.05 1018.05 1017.96
1006.40 1006.16 1006.11 1006.22 1006.45 1006.75 1007.11 1007.51 1007.95 1008.43 1008.92 1009.42 1009.90 1010.34 1010.72 1011.01 1011.23 1011.37 1011.46 1011.53 1011.60 1011.70 1011.84 1012.03 1012.24 1012.47 1012.70 1012.92 1013.13 1013.35 1013.59 1013.88 1014.24 1014.69 1015.21 1015.79 1016.37 1016.92 1017.38 1017.71 1017.89 1017.94 1017.87
1007.16 1006.86 1006.75 1006.79 1006.95 1007.19 1007.49 1007.83 1008.22 1008.64 1009.07 1009.51 1009.94 1010.32 1010.65 1010.92 1011.11 1011.25 1011.35 1011.43 1011.52 1011.64 1011.78 1011.95 1012.14 1012.32 1012.50 1012.65 1012.79 1012.94 1013.12 1013.37 1013.70 1014.13 1014.65 1015.23 1015.84 1016.41 1016.91 1017.28 1017.52 1017.61 1017.58
1008.02 1007.64 1007.45 1007.40 1007.47 1007.62 1007.84 1008.11 1008.42 1008.77 1009.14 1009.52 1009.89 1010.24 1010.53 1010.78 1010.97 1011.12 1011.25 1011.36 1011.48 1011.61 1011.77 1011.93 1012.10 1012.25 1012.37 1012.48 1012.56 1012.66 1012.78 1012.97 1013.25 1013.63 1014.11 1014.65 1015.23 1015.80 1016.30 1016.69 1016.96 1017.10 1017.12
1008.87 1008.42 1008.13 1007.98 1007.94 1007.98 1008.10 1008.29 1008.52 1008.80 1009.11 1009.44 1009.77 1010.08 1010.37 1010.61 1010.82 1010.99 1011.15 1011.30 1011.45 1011.61 1011.77 1011.94 1012.10 1012.23 1012.33 1012.41 1012.46 1012.51 1012.59 1012.72 1012.94 1013.25 1013.65 1014.12 1014.63 1015.14 1015.61 1016.01 1016.30 1016.48 1016.57
1009.63 1009.10 1008.71 1008.45 1008.30 1008.24 1008.26 1008.35 1008.51 1008.73 1008.99 1009.28 1009.58 1009.88 1010.17 1010.42 1010.66 1010.86 1011.05 1011.23 1011.41 1011.60 1011.78 1011.96 1012.11 1012.24 1012.34 1012.41 1012.45 1012.48 1012.53 1012.63 1012.78 1013.01 1013.31 1013.68 1014.10 1014.54 1014.95 1015.32 1015.62 1015.85 1016.00
1010.25 1009.65 1009.17 1008.80 1008.54 1008.39 1008.32 1008.34 1008.44 1008.61 1008.83 1009.10 1009.39 1009.68 1009.98 1010.25 1010.50 1010.74 1010.95 1011.15 1011.35 1011.55 1011.74 1011.92 1012.09 1012.23 1012.34 1012.43 1012.49 1012.53 1012.58 1012.65 1012.76 1012.91 1013.12 1013.39 1013.70 1014.04 1014.39 1014.72 1015.03 1015.29 1015.51
1010.72 1010.06 1009.51 1009.07 1008.73 1008.50 1008.37 1008.33 1008.39 1008.53 1008.73 1008.98 1009.26 1009.55 1009.85 1010.13 1010.39 1010.63 1010.85 1011.05 1011.24 1011.43 1011.62 1011.80 1011.97 1012.14 1012.28 1012.40 1012.51 1012.59 1012.66 1012.74 1012.82 1012.92 1013.05 1013.22 1013.43 1013.68 1013.95 1014.25 1014.55 1014.84 1015.12
1011.11 1010.41 1009.81 1009.31 1008.93 1008.65 1008.48 1008.42 1008.45 1008.57 1008.76 1008.99 1009.26 1009.54 1009.83 1010.09 1010.34 1010.55 1010.75 1010.92 1011.09 1011.25 1011.41 1011.58 1011.75 1011.93 1012.11 1012.29 1012.45 1012.59 1012.71 1012.81 1012.90 1012.98 1013.06 1013.15 1013.28 1013.44 1013.65 1013.90 1014.18 1014.49 1014.81
1011.48 1010.76 1010.14 1009.63 1009.22 1008.93 1008.75 1008.68 1008.71 1008.81 1008.99 1009.20 1009.45 1009.70 1009.94 1010.17 1010.37 1010.53 1010.68 1010.79 1010.90 1011.01 1011.12 1011.26 1011.42 1011.61 1011.82 1012.05 1012.27 1012.49 1012.67 1012.82 1012.93 1013.01 1013.06 1013.11 1013.18 1013.27 1013.42 1013.63 1013.89 1014.20 1014.54
1011.88 1011.17 1010.56 1010.05 1009.66 1009.39 1009.22 1009.16 1009.19 1009.29 1009.44 1009.62 1009.82 1010.02 1010.20 1010.36 1010.49 1010.58 1010.64 1010.68 1010.71 1010.75 1010.81 1010.90 1011.03 1011.22 1011.44 1011.70 1011.98 1012.26 1012.51 1012.71 1012.86 1012.96 1013.01 1013.04 1013.06 1013.11 1013.21 1013.38 1013.61 1013.90 1014.24
1012.34 1011.66 1011.08 1010.62 1010.27 1010.03 1009.89 1009.85 1009.88 1009.96 1010.08 1010.22 1010.35 1010.48 1010.58 1010.65 1010.69 1010.70 1010.67 1010.62 1010.57 1010.53 1010.52 1010.55 1010.65 1010.80 1011.03 1011.30 1011.61 1011.92 1012.22 1012.47 1012.66 1012.79 1012.85 1012.88 1012.88 1012.90 1012.96 1013.09 1013.29 1013.55 1013.86
1012.83 1012.21 1011.69 1011.28 1010.99 1010.80 1010.70 1010.68 1010.71 1010.77 1010.84 1010.92 1010.98 1011.02 1011.03 1011.01 1010.96 1010.88 1010.77 1010.64 1010.52 1010.40 1010.32 1010.30 1010.34 1010.45 1010.65 1010.91 1011.21 1011.53 1011.85 1012.13 1012.34 1012.49 1012.57 1012.60 1012.60 1012.60 1012.64 1012.74 1012.90 1013.13 1013.41
1013.32 1012.76 1012.31 1011.98 1011.75 1011.62 1011.56 1011.55 1011.57 1011.60 1011.63 1011.63 1011.62 1011.57 1011.50 1011.40 1011.27 1011.12 1010.95 1010.77 1010.59 1010.42 1010.29 1010.20 1010.19 1010.25 1010.38 1010.59 1010.86 1011.15 1011.45 1011.72 1011.94 1012.09 1012.18 1012.22 1012.23 1012.23 1012.26 1012.33 1012.46 1012.66 1012.91
1013.74 1013.25 1012.88 1012.62 1012.46 1012.38 1012.35 1012.35 1012.36 1012.36 1012.33 1012.28 1012.19 1012.08 1011.94 1011.78 1011.60 1011.41 1011.21 1011.01 1010.80 1010.61 1010.44 1010.31 1010.24 1010.23 1010.29 1010.42 1010.61 1010.83 1011.07 1011.30 1011.50 1011.64 1011.74 1011.79 1011.81 1011.82 1011.84 1011.91 1012.03 1012.20 1012.42
1014.04 1013.63 1013.33 1013.14 1013.03 1012.99 1012.99 1012.99 1012.99 1012.96 1012.89 1012.79 1012.65 1012.49 1012.31 1012.12 1011.93 1011.74 1011.55 1011.35 1011.16 1010.96 1010.78 1010.62 1010.49 1010.41 1010.38 1010.41 1010.50 1010.63 1010.78 1010.94 1011.09 1011.21 1011.30 1011.36 1011.39 1011.42 1011.47 1011.54 1011.66 1011.82 1012.02
1014.22 1013.87 1013.63 1013.49 1013.43 1013.42 1013.43 1013.44 1013.43 1013.37 1013.28 1013.15 1012.99 1012.80 1012.62 1012.44 1012.26 1012.10 1011.94 1011.78 1011.62 1011.45 1011.27 1011.08 1010.91 1010.76 1010.64 1010.57 1010.54 1010.55 1010.60 1010.67 1010.76 1010.84 1010.92 1010.99 1011.04 1011.10 1011.18 1011.28 1011.40 1011.57 1011.76
1014.30 1014.00 1013.80 1013.70 1013.66 1013.66 1013.68 1013.69 1013.67 1013.61 1013.51 1013.37 1013.21 1013.04 1012.87 1012.72 1012.59 1012.48 1012.37 1012.26 1012.15 1012.01 1011.84 1011.65 1011.44 1011.22 1011.02 1010.84 1010.69 1010.59 1010.53 1010.52 1010.54 1010.58 1010.64 1010.72 1010.81 1010.90 1011.02 1011.15 1011.30 1011.48 1011.67
1014.33 1014.05 1013.87 1013.78 1013.74 1013.74 1013.76 1013.77 1013.75 1013.70 1013.61 1013.49 1013.36 1013.22 1013.10 1012.99 1012.91 1012.86 1012.81 1012.75 1012.68 1012.57 1012.42 1012.22 1011.98 1011.72 1011.44 1011.17 1010.93 1010.72 1010.57 1010.48 1010.43 1010.44 1010.50 1010.59 1010.70 1010.84 1011.00 1011.17 1011.35 1011.54 1011.74
1014.34 1014.07 1013.89 1013.78 1013.73 1013.71 1013.72 1013.73 1013.72 1013.68 1013.62 1013.55 1013.46 1013.37 1013.30 1013.25 1013.22 1013.21 1013.21 1013.20 1013.16 1013.08 1012.94 1012.74 1012.48 1012.18 1011.85 1011.52 1011.20 1010.92 1010.69 1010.54 1010.45 1010.44 1010.48 1010.59 1010.73 1010.91 1011.11 1011.31 1011.52 1011.73 1011.93
1014.38 1014.09 1013.87 1013.73 1013.65 1013.61 1013.60 1013.61 1013.61 1013.61 1013.59 1013.56 1013.53 1013.50 1013.49 1013.49 1013.50 1013.53 1013.56 1013.57 1013.54 1013.47 1013.34 1013.14 1012.87 1012.56 1012.20 1011.83 1011.47 1011.15 1010.88 1010.69 1010.58 1010.56 1010.61 1010.72 1010.89 1011.10 1011.32 1011.55 1011.78 1011.99 1012.17
1014.44 1014.11 1013.85 1013.66 1013.53 1013.46 1013.43 1013.43 1013.46 1013.49 1013.52 1013.55 1013.58 1013.61 1013.64 1013.69 1013.73 1013.78 1013.82 1013.83 1013.81 1013.74 1013.61 1013.41 1013.14 1012.83 1012.47 1012.10 1011.74 1011.41 1011.14 1010.94 1010.83 1010.80 1010.86 1010.98 1011.17 1011.38 1011.62 1011.86 1012.08 1012.28 1012.44
Thickness
5805 5812 5813 5812 5807 5804 5799 5794 5790 5786 5781 5773 5767 5762 5759 5758 5756 5755 5753 5750 5746 5742 5739 5736 5733 5731 5727 5723 5719 5714 5710 5705 5702 5697 5693 5694 5697 5700 5703 5703 5703 5703 5705
5794 5801 5806 5806 5802 5799 5796 5792 5787 5782 5778 5773 5768 5764 5760 5756 5754 5752 5749 5746 5743 5739 5736 5732 5728 5726 5723 5719 5716 5711 5705 5701 5699 5693 5685 5681 5684 5692 5697 5698 5698 5699 5701
5784 5791 5795 5797 5797 5795 5793 5789 5783 5778 5773 5769 5764 5759 5754 5751 5747 5745 5743 5742 5739 5736 5732 5729 5724 5720 5717 5713 5711 5709 5704 5697 5694 5693 5686 5677 5674 5682 5690 5693 5694 5695 5697
5778 5782 5786 5788 5790 5791 5789 5783 5777 5773 5769 5766 5761 5756 5750 5744 5743 5742 5740 5738 5735 5731 5727 5724 5720 5716 5712 5708 5706 5706 5703 5698 5690 5688 5689 5687 5684 5680 5680 5686 5690 5691 5692
5768 5770 5774 5778 5779 5780 5778 5773 5769 5766 5764 5762 5759 5753 5748 5744 5741 5737 5734 5730 5728 5725 5723 5719 5715 5711 5707 5704 5702 5700 5698 5696 5691 5687 5684 5683 5683 5684 5680 5678 5683 5686 5689
5760 5759 5760 5762 5762 5762 5760 5759 5759 5757 5757 5755 5753 5749 5743 5738 5734 5730 5726 5723 5721 5719 5717 5714 5711 5707 5703 5700 5698 5697 5694 5693 5690 5687 5683 5680 5679 5679 5679 5677 5678 5680 5685
5750 5748 5746 5746 5745 5744 5743 5745 5748 5748 5749 5748 5746 5743 5739 5734 5729 5725 5721 5718 5714 5712 5710 5708 5705 5702 5699 5696 5693 5691 5690 5689 5687 5685 5682 5681 5681 5681 5678 5676 5675 5678 5682
5735 5738 5740 5738 5735 5735 5734 5736 5739 5742 5743 5742 5740 5737 5734 5730 5725 5722 5718 5714 5710 5707 5704 5702 5699 5697 5694 5692 5689 5686 5686 5685 5684 5683 5681 5680 5680 5680 5678 5676 5673 5673 5676
5715 5722 5726 5726 5725 5726 5730 5733 5735 5736 5738 5737 5734 5731 5727 5724 5721 5718 5715 5710 5705 5701 5698 5696 5693 5691 5689 5687 5685 5682 5681 5681 5681 5680 5680 5680 5680 5680 5679 5678 5675 5672 5670
5701 5707 5711 5712 5716 5721 5727 5730 5732 5732 5733 5731 5728 5725 5722 5719 5716 5713 5708 5703 5700 5696 5692 5689 5687 5686 5684 5683 5681 5679 5678 5677 5677 5677 5677 5677 5678 5679 5678 5677 5676 5674 5673
5690 5697 5702 5705 5712 5721 5725 5728 5729 5729 5727 5725 5722 5718 5715 5713 5710 5705 5701 5698 5694 5691 5687 5685 5682 5681 5680 5678 5677 5675 5675 5674 5674 5674 5675 5675 5676 5677 5677 5676 5675 5674 5673
5685 5692 5700 5707 5714 5719 5723 5726 5727 5725 5723 5720 5715 5712 5708 5704 5700 5696 5693 5690 5687 5685 5683 5680 5677 5676 5675 5674 5673 5672 5672 5671 5670 5671 5672 5673 5674 5674 5675 5674 5673 5672 5673
5688 5693 5699 5706 5714 5719 5722 5723 5723 5721 5718 5714 5708 5703 5699 5696 5692 5689 5687 5684 5682 5680 5679 5676 5673 5672 5671 5670 5670 5670 5669 5668 5668 5668 5668 5669 5670 5670 5670 5670 5670 5670 5671
5690 5695 5697 5701 5708 5715 5718 5719 5718 5716 5713 5707 5701 5696 5691 5689 5688 5686 5683 5680 5679 5677 5675 5673 5671 5669 5668 5667 5667 5666 5665 5664 5663 5664 5664 5665 5665 5665 5665 5665 5665 5666 5666
5682 5688 5692 5696 5702 5707 5710 5711 5711 5710 5707 5701 5695 5690 5687 5686 5685 5683 5680 5678 5676 5675 5673 5670 5668 5667 5665 5664 5662 5661 5661 5659 5658 5658 5659 5659 5660 5661 5661 5660 5659 5659 5660
5669 5676 5682 5687 5690 5692 5694 5698 5699 5701 5700 5695 5689 5686 5683 5681 5680 5679 5678 5675 5671 5669 5668 5666 5665 5663 5663 5663 5661 5658 5656 5655 5654 5653 5653 5654 5655 5656 5656 5656 5655 5654 5654
5659 5665 5670 5674 5676 5679 5681 5683 5685 5687 5687 5683 5680 5677 5675 5674 5674 5674 5672 5669 5666 5664 5662 5662 5661 5659 5659 5659 5658 5656 5653 5651 5650 5650 5649 5650 5652 5652 5652 5651 5651 5650 5651
5653 5658 5662 5666 5668 5671 5673 5674 5675 5674 5673 5671 5669 5668 5667 5666 5665 5665 5663 5662 5661 5659 5657 5656 5655 5654 5655 5655 5655 5653 5650 5647 5647 5647 5646 5646 5648 5650 5649 5647 5646 5646 5647
5652 5656 5659 5662 5664 5665 5666 5667 5666 5665 5665 5663 5661 5660 5659 5658 5656 5655 5655 5654 5653 5652 5651 5651 5650 5649 5649 5650 5650 5648 5644 5642 5642 5643 5643 5644 5645 5648 5647 5644 5643 5643 5644
5655 5656 5658 5660 5661 5661 5662 5661 5659 5658 5657 5656 5654 5653 5652 5650 5648 5647 5646 5646 5645 5644 5644 5644 5644 5644 5643 5644 5644 5643 5639 5637 5637 5638 5639 5641 5642 5645 5645 5642 5641 5640 5642
5657 5657 5657 5657 5658 5659 5658 5655 5653 5652 5652 5651 5648 5646 5644 5643 5640 5639 5638 5637 5637 5636 5636 5636 5636 5636 5637 5638 5639 5638 5634 5633 5632 5632 5634 5636 5639 5642 5643 5642 5640 5641 5641
5658 5658 5655 5655 5656 5656 5654 5651 5649 5649 5648 5645 5642 5640 5637 5636 5634 5632 5630 5629 5628 5627 5625 5625 5625 5626 5626 5627 5628 5629 5629 5628 5626 5627 5629 5631 5634 5636 5638 5637 5637 5637 5636
5657 5656 5654 5653 5652 5652 5651 5648 5646 5646 5643 5639 5636 5633 5631 5628 5626 5623 5621 5619 5618 5616 5615 5614 5613 5613 5613 5613 5614 5615 5617 5618 5618 5620 5623 5625 5627 5628 5629 5630 5630 5629 5628
5655 5654 5653 5650 5649 5649 5648 5646 5645 5643 5638 5633 5629 5626 5623 5620 5617 5615 5613 5611 5609 5607 5606 5605 5603 5602 5600 5599 5599 5599 5600 5603 5606 5609 5613 5616 5617 5618 5620 5620 5621 5621 5621
5653 5653 5651 5649 5648 5647 5646 5645 5642 5639 5633 5629 5625 5621 5618 5615 5612 5609 5606 5604 5602 5600 5598 5597 5595 5594 5592 5589 5587 5586 5587 5590 5594 5598 5602 5605 5607 5609 5610 5611 5613 5614 5615
5651 5651 5650 5650 5649 5647 5644 5642 5640 5636 5630 5625 5621 5617 5615 5612 5609 5606 5603 5600 5597 5595 5594 5592 5590 5589 5586 5584 5582 5580 5580 5583 5587 5591 5594 5598 5601 5603 5604 5605 5606 5608 5609